owner,sensor,date,latitude,longitude,vertical_datum,direction_of_sea_water_velocity,sea_water_speed,upward_sea_water_velocity,qcFlag 
TABS,ioos:station:wmo:42046:1,2016-04-01T00:00:00Z,27.8903,-94.0367,2.0,31.94488853,1.001698557,-99999.0,'11133222,11111222,99999999' 
TABS,ioos:station:wmo:42046:1,2016-04-01T00:30:00Z,27.8903,-94.0367,2.0,20.0562583,4.024027833,-99999.0,'11133222,11111222,99999999' 
TABS,ioos:station:wmo:42046:1,2016-04-01T01:00:00Z,27.8903,-94.0367,2.0,327.6238498,2.782552785,-99999.0,'11133222,11111222,99999999' 
TABS,ioos:station:wmo:42046:1,2016-04-01T01:30:00Z,27.8903,-94.0367,2.0,171.606884,0.6166036,-99999.0,'11133222,11111222,99999999' 
TABS,ioos:station:wmo:42046:1,2016-04-01T02:00:00Z,27.8903,-94.0367,2.0,320.2474423,2.783522948,-99999.0,'11133222,11111222,99999999' 
TABS,ioos:station:wmo:42046:1,2016-04-01T02:30:00Z,27.8903,-94.0367,2.0,335.4565816,1.901841213,-99999.0,'11133222,11111222,99999999' 
TABS,ioos:station:wmo:42046:1,2016-04-01T03:00:00Z,27.8903,-94.0367,2.0,18.10393116,2.735415873,-99999.0,'11133222,11111222,99999999' 
TABS,ioos:station:wmo:42046:1,2016-04-01T03:30:00Z,27.8903,-94.0367,2.0,357.94958,3.912505591,-99999.0,'11133222,11111222,99999999' 
TABS,ioos:station:wmo:42046:1,2016-04-01T04:00:00Z,27.8903,-94.0367,2.0,352.9006698,5.582803955,-99999.0,'11133222,11111222,99999999' 
TABS,ioos:station:wmo:42046:1,2016-04-01T04:30:00Z,27.8903,-94.0367,2.0,351.8873227,9.424319604,-99999.0,'11133222,11111222,99999999' 
TABS,ioos:station:wmo:42046:1,2016-04-01T05:00:00Z,27.8903,-94.0367,2.0,354.9986628,7.799698712,-99999.0,'11133222,11111222,99999999' 
TABS,ioos:station:wmo:42046:1,2016-04-01T05:30:00Z,27.8903,-94.0367,2.0,349.4552041,8.961344765,-99999.0,'11133222,11111222,99999999' 
TABS,ioos:station:wmo:42046:1,2016-04-01T06:00:00Z,27.8903,-94.0367,2.0,354.9081072,10.14001972,-99999.0,'11111222,11111222,99999999' 
TABS,ioos:station:wmo:42046:1,2016-04-01T06:30:00Z,27.8903,-94.0367,2.0,0.92212978,8.701126364,-99999.0,'11133222,11111222,99999999' 
TABS,ioos:station:wmo:42046:1,2016-04-01T07:00:00Z,27.8903,-94.0367,2.0,356.7349994,9.305106125,-99999.0,'11133222,11111222,99999999' 
TABS,ioos:station:wmo:42046:1,2016-04-01T07:30:00Z,27.8903,-94.0367,2.0,17.51282276,13.35919159,-99999.0,'11111222,11111222,99999999' 
TABS,ioos:station:wmo:42046:1,2016-04-01T08:00:00Z,27.8903,-94.0367,2.0,17.79797957,14.78772464,-99999.0,'11111222,11111222,99999999' 
TABS,ioos:station:wmo:42046:1,2016-04-01T08:30:00Z,27.8903,-94.0367,2.0,31.27847721,14.36836804,-99999.0,'11111222,11111222,99999999' 
TABS,ioos:station:wmo:42046:1,2016-04-01T09:00:00Z,27.8903,-94.0367,2.0,24.12226429,13.84937544,-99999.0,'11111222,11111222,99999999' 
TABS,ioos:station:wmo:42046:1,2016-04-01T09:30:00Z,27.8903,-94.0367,2.0,34.97752513,12.83900308,-99999.0,'11111222,11111222,99999999' 
TABS,ioos:station:wmo:42046:1,2016-04-01T10:00:00Z,27.8903,-94.0367,2.0,45.75066027,19.43296169,-99999.0,'11111222,11111222,99999999' 
TABS,ioos:station:wmo:42046:1,2016-04-01T10:30:00Z,27.8903,-94.0367,2.0,52.92506503,15.64210024,-99999.0,'11111222,11111222,99999999' 
TABS,ioos:station:wmo:42046:1,2016-04-01T11:00:00Z,27.8903,-94.0367,2.0,71.39934071,16.39647828,-99999.0,'11111222,11111222,99999999' 
TABS,ioos:station:wmo:42046:1,2016-04-01T11:30:00Z,27.8903,-94.0367,2.0,64.74462439,12.91442991,-99999.0,'11111222,11111222,99999999' 
TABS,ioos:station:wmo:42046:1,2016-04-01T12:00:00Z,27.8903,-94.0367,2.0,75.45299476,14.69096661,-99999.0,'11111222,11111222,99999999' 
TABS,ioos:station:wmo:42046:1,2016-04-01T12:30:00Z,27.8903,-94.0367,2.0,87.17890915,15.23846777,-99999.0,'11111222,11111222,99999999' 
TABS,ioos:station:wmo:42046:1,2016-04-01T13:00:00Z,27.8903,-94.0367,2.0,76.19807816,11.8625166,-99999.0,'11111222,11111222,99999999' 
TABS,ioos:station:wmo:42046:1,2016-04-01T13:30:00Z,27.8903,-94.0367,2.0,90.34593177,13.25024151,-99999.0,'11111222,11111222,99999999' 
TABS,ioos:station:wmo:42046:1,2016-04-01T14:00:00Z,27.8903,-94.0367,2.0,89.23683007,10.5109324,-99999.0,'11111222,11111222,99999999' 
TABS,ioos:station:wmo:42046:1,2016-04-01T14:30:00Z,27.8903,-94.0367,2.0,84.14717096,9.21805294,-99999.0,'11133222,11111222,99999999' 
TABS,ioos:station:wmo:42046:1,2016-04-01T15:00:00Z,27.8903,-94.0367,2.0,110.7363291,6.693616362,-99999.0,'11133222,11111222,99999999' 
TABS,ioos:station:wmo:42046:1,2016-04-01T15:30:00Z,27.8903,-94.0367,2.0,133.7810224,7.645554264,-99999.0,'11133222,11111222,99999999' 
TABS,ioos:station:wmo:42046:1,2016-04-01T16:00:00Z,27.8903,-94.0367,2.0,133.675376,9.788973388,-99999.0,'11133222,11111222,99999999' 
TABS,ioos:station:wmo:42046:1,2016-04-01T16:30:00Z,27.8903,-94.0367,2.0,128.2610765,8.978646891,-99999.0,'11133222,11111222,99999999' 
TABS,ioos:station:wmo:42046:1,2016-04-01T17:00:00Z,27.8903,-94.0367,2.0,155.7032271,10.62070148,-99999.0,'11111222,11111222,99999999' 
TABS,ioos:station:wmo:42046:1,2016-04-01T17:30:00Z,27.8903,-94.0367,2.0,161.8789813,9.806370378,-99999.0,'11133222,11111222,99999999' 
TABS,ioos:station:wmo:42046:1,2016-04-01T18:00:00Z,27.8903,-94.0367,2.0,179.8008471,14.40008681,-99999.0,'11111222,11111222,99999999' 
TABS,ioos:station:wmo:42046:1,2016-04-01T18:30:00Z,27.8903,-94.0367,2.0,186.7847473,16.92855871,-99999.0,'11111222,11111222,99999999' 
TABS,ioos:station:wmo:42046:1,2016-04-01T19:00:00Z,27.8903,-94.0367,2.0,188.5768941,21.38921691,-99999.0,'11111222,11111222,99999999' 
TABS,ioos:station:wmo:42046:1,2016-04-01T19:30:00Z,27.8903,-94.0367,2.0,187.3412932,23.63374706,-99999.0,'11111222,11111222,99999999' 
TABS,ioos:station:wmo:42046:1,2016-04-01T20:00:00Z,27.8903,-94.0367,2.0,193.9601521,27.48173575,-99999.0,'11111222,11111222,99999999' 
TABS,ioos:station:wmo:42046:1,2016-04-01T20:30:00Z,27.8903,-94.0367,2.0,200.027086,32.09053755,-99999.0,'11111222,11111222,99999999' 
TABS,ioos:station:wmo:42046:1,2016-04-01T21:00:00Z,27.8903,-94.0367,2.0,208.0456048,31.66882694,-99999.0,'11111222,11111222,99999999' 
TABS,ioos:station:wmo:42046:1,2016-04-01T21:30:00Z,27.8903,-94.0367,2.0,215.7902888,26.86276605,-99999.0,'11111222,11111222,99999999' 
TABS,ioos:station:wmo:42046:1,2016-04-01T22:00:00Z,27.8903,-94.0367,2.0,208.7501039,29.08556515,-99999.0,'11111222,11111222,99999999' 
TABS,ioos:station:wmo:42046:1,2016-04-01T22:30:00Z,27.8903,-94.0367,2.0,207.9520325,30.84889139,-99999.0,'11111222,11111222,99999999' 
TABS,ioos:station:wmo:42046:1,2016-04-01T23:00:00Z,27.8903,-94.0367,2.0,217.1094341,27.71224278,-99999.0,'11111222,11111222,99999999' 
TABS,ioos:station:wmo:42046:1,2016-04-01T23:30:00Z,27.8903,-94.0367,2.0,214.5186074,34.1287269,-99999.0,'11111222,11111222,99999999' 
TABS,ioos:station:wmo:42046:1,2016-04-02T00:00:00Z,27.8903,-94.0367,2.0,0.0,0.0,-99999.0,'11133222,11111222,99999999' 
TABS,ioos:station:wmo:42046:1,2016-04-02T00:30:00Z,27.8903,-94.0367,2.0,224.4708165,29.87653427,-99999.0,'11111222,11111222,99999999' 
TABS,ioos:station:wmo:42046:1,2016-04-02T01:00:00Z,27.8903,-94.0367,2.0,228.7260053,29.48504875,-99999.0,'11111222,11111222,99999999' 
TABS,ioos:station:wmo:42046:1,2016-04-02T01:30:00Z,27.8903,-94.0367,2.0,232.9558266,31.62214572,-99999.0,'11111222,11111222,99999999' 
TABS,ioos:station:wmo:42046:1,2016-04-02T02:00:00Z,27.8903,-94.0367,2.0,231.0464652,28.05854594,-99999.0,'11111222,11111222,99999999' 
TABS,ioos:station:wmo:42046:1,2016-04-02T02:30:00Z,27.8903,-94.0367,2.0,237.7584788,28.84808659,-99999.0,'11111222,11111222,99999999' 
TABS,ioos:station:wmo:42046:1,2016-04-02T03:00:00Z,27.8903,-94.0367,2.0,233.7085742,28.11343451,-99999.0,'11111222,11111222,99999999' 
TABS,ioos:station:wmo:42046:1,2016-04-02T03:30:00Z,27.8903,-94.0367,2.0,246.078662,30.82794836,-99999.0,'11111222,11111222,99999999' 
TABS,ioos:station:wmo:42046:1,2016-04-02T04:00:00Z,27.8903,-94.0367,2.0,229.14145,24.67174903,-99999.0,'11111222,11111222,99999999' 
TABS,ioos:station:wmo:42046:1,2016-04-02T04:30:00Z,27.8903,-94.0367,2.0,246.1076297,23.11031155,-99999.0,'11111222,11111222,99999999' 
TABS,ioos:station:wmo:42046:1,2016-04-02T05:00:00Z,27.8903,-94.0367,2.0,240.3204169,21.65027713,-99999.0,'11111222,11111222,99999999' 
TABS,ioos:station:wmo:42046:1,2016-04-02T05:30:00Z,27.8903,-94.0367,2.0,244.9539745,18.04694157,-99999.0,'11111222,11111222,99999999' 
TABS,ioos:station:wmo:42046:1,2016-04-02T06:00:00Z,27.8903,-94.0367,2.0,240.7442626,21.34219529,-99999.0,'11111222,11111222,99999999' 
TABS,ioos:station:wmo:42046:1,2016-04-02T06:30:00Z,27.8903,-94.0367,2.0,246.8152654,21.15871924,-99999.0,'11111222,11111222,99999999' 
TABS,ioos:station:wmo:42046:1,2016-04-02T07:00:00Z,27.8903,-94.0367,2.0,233.7041894,17.75489228,-99999.0,'11111222,11111222,99999999' 
TABS,ioos:station:wmo:42046:1,2016-04-02T07:30:00Z,27.8903,-94.0367,2.0,251.6378478,14.85639256,-99999.0,'11111222,11111222,99999999' 
TABS,ioos:station:wmo:42046:1,2016-04-02T08:00:00Z,27.8903,-94.0367,2.0,250.1304723,15.0350158,-99999.0,'11111222,11111222,99999999' 
TABS,ioos:station:wmo:42046:1,2016-04-02T08:30:00Z,27.8903,-94.0367,2.0,261.4580991,13.19636692,-99999.0,'11111222,11111222,99999999' 
TABS,ioos:station:wmo:42046:1,2016-04-02T09:00:00Z,27.8903,-94.0367,2.0,260.7287365,13.28351234,-99999.0,'11111222,11111222,99999999' 
TABS,ioos:station:wmo:42046:1,2016-04-02T09:30:00Z,27.8903,-94.0367,2.0,256.3526579,16.06350522,-99999.0,'11111222,11111222,99999999' 
TABS,ioos:station:wmo:42046:1,2016-04-02T10:00:00Z,27.8903,-94.0367,2.0,262.0708856,16.09384976,-99999.0,'11111222,11111222,99999999' 
TABS,ioos:station:wmo:42046:1,2016-04-02T10:30:00Z,27.8903,-94.0367,2.0,251.7047602,6.466877144,-99999.0,'11133222,11111222,99999999' 
TABS,ioos:station:wmo:42046:1,2016-04-02T11:00:00Z,27.8903,-94.0367,2.0,273.3465585,9.936941179,-99999.0,'11133222,11111222,99999999' 
TABS,ioos:station:wmo:42046:1,2016-04-02T11:30:00Z,27.8903,-94.0367,2.0,257.5129785,10.31396141,-99999.0,'11111222,11111222,99999999' 
TABS,ioos:station:wmo:42046:1,2016-04-02T12:00:00Z,27.8903,-94.0367,2.0,250.7467278,5.094948479,-99999.0,'11133222,11111222,99999999' 
TABS,ioos:station:wmo:42046:1,2016-04-03T00:00:00Z,27.8903,-94.0367,2.0,195.9889438,7.188080411,-99999.0,'11133222,11111222,99999999' 
TABS,ioos:station:wmo:42046:1,2016-04-03T00:30:00Z,27.8903,-94.0367,2.0,213.7201981,10.44777967,-99999.0,'11111222,11111222,99999999' 
TABS,ioos:station:wmo:42046:1,2016-04-03T01:00:00Z,27.8903,-94.0367,2.0,227.1526421,7.528930867,-99999.0,'11133222,11111222,99999999' 
TABS,ioos:station:wmo:42046:1,2016-04-03T01:30:00Z,27.8903,-94.0367,2.0,242.8212792,10.02710327,-99999.0,'11111222,11111222,99999999' 
TABS,ioos:station:wmo:42046:1,2016-04-03T02:00:00Z,27.8903,-94.0367,2.0,244.6478523,9.715657466,-99999.0,'11133222,11111222,99999999' 
TABS,ioos:station:wmo:42046:1,2016-04-03T02:30:00Z,27.8903,-94.0367,2.0,239.6253933,10.50141419,-99999.0,'11111222,11111222,99999999' 
TABS,ioos:station:wmo:42046:1,2016-04-03T03:00:00Z,27.8903,-94.0367,2.0,238.5726479,10.60581916,-99999.0,'11111222,11111222,99999999' 
TABS,ioos:station:wmo:42046:1,2016-04-03T03:30:00Z,27.8903,-94.0367,2.0,233.6545515,11.13646712,-99999.0,'11111222,11111222,99999999' 
TABS,ioos:station:wmo:42046:1,2016-04-03T04:00:00Z,27.8903,-94.0367,2.0,233.9121911,9.812914959,-99999.0,'11133222,11111222,99999999' 
TABS,ioos:station:wmo:42046:1,2016-04-03T04:30:00Z,27.8903,-94.0367,2.0,228.350247,11.97765002,-99999.0,'11111222,11111222,99999999' 
TABS,ioos:station:wmo:42046:1,2016-04-03T05:00:00Z,27.8903,-94.0367,2.0,221.1068693,9.582191816,-99999.0,'11133222,11111222,99999999' 
TABS,ioos:station:wmo:42046:1,2016-04-03T05:30:00Z,27.8903,-94.0367,2.0,229.2897107,11.43767896,-99999.0,'11111222,11111222,99999999' 
TABS,ioos:station:wmo:42046:1,2016-04-03T06:00:00Z,27.8903,-94.0367,2.0,231.400147,7.421381273,-99999.0,'11133222,11111222,99999999' 
TABS,ioos:station:wmo:42046:1,2016-04-03T06:30:00Z,27.8903,-94.0367,2.0,240.6964499,10.29766964,-99999.0,'11111222,11111222,99999999' 
TABS,ioos:station:wmo:42046:1,2016-04-03T07:00:00Z,27.8903,-94.0367,2.0,246.3738392,9.157565179,-99999.0,'11133222,11111222,99999999' 
TABS,ioos:station:wmo:42046:1,2016-04-03T07:30:00Z,27.8903,-94.0367,2.0,234.107981,12.41780979,-99999.0,'11111222,11111222,99999999' 
TABS,ioos:station:wmo:42046:1,2016-04-03T08:00:00Z,27.8903,-94.0367,2.0,239.8536772,10.45390358,-99999.0,'11111222,11111222,99999999' 
TABS,ioos:station:wmo:42046:1,2016-04-03T08:30:00Z,27.8903,-94.0367,2.0,241.8272259,8.768836867,-99999.0,'11133222,11111222,99999999' 
TABS,ioos:station:wmo:42046:1,2016-04-03T09:00:00Z,27.8903,-94.0367,2.0,242.587918,9.079427295,-99999.0,'11133222,11111222,99999999' 
TABS,ioos:station:wmo:42046:1,2016-04-03T09:30:00Z,27.8903,-94.0367,2.0,249.3705111,8.259600475,-99999.0,'11133222,11111222,99999999' 
TABS,ioos:station:wmo:42046:1,2016-04-03T10:00:00Z,27.8903,-94.0367,2.0,244.6246967,9.474027655,-99999.0,'11133222,11111222,99999999' 
TABS,ioos:station:wmo:42046:1,2016-04-03T10:30:00Z,27.8903,-94.0367,2.0,277.2878458,8.750685687,-99999.0,'11133222,11111222,99999999' 
TABS,ioos:station:wmo:42046:1,2016-04-03T11:00:00Z,27.8903,-94.0367,2.0,260.8906853,10.92780856,-99999.0,'11111222,11111222,99999999' 
TABS,ioos:station:wmo:42046:1,2016-04-03T11:30:00Z,27.8903,-94.0367,2.0,274.3728396,6.689469336,-99999.0,'11133222,11111222,99999999' 
TABS,ioos:station:wmo:42046:1,2016-04-03T12:00:00Z,27.8903,-94.0367,2.0,283.1872491,11.6163075,-99999.0,'11111222,11111222,99999999' 
TABS,ioos:station:wmo:42046:1,2016-04-03T12:30:00Z,27.8903,-94.0367,2.0,285.7344078,11.54248673,-99999.0,'11111222,11111222,99999999' 
TABS,ioos:station:wmo:42046:1,2016-04-03T13:00:00Z,27.8903,-94.0367,2.0,298.8740839,10.76870001,-99999.0,'11111222,11111222,99999999' 
TABS,ioos:station:wmo:42046:1,2016-04-03T13:30:00Z,27.8903,-94.0367,2.0,295.3644193,10.66838788,-99999.0,'11111222,11111222,99999999' 
TABS,ioos:station:wmo:42046:1,2016-04-03T14:00:00Z,27.8903,-94.0367,2.0,315.54655,13.35078275,-99999.0,'11111222,11111222,99999999' 
TABS,ioos:station:wmo:42046:1,2016-04-03T14:30:00Z,27.8903,-94.0367,2.0,324.2159148,16.46895564,-99999.0,'11111222,11111222,99999999' 
TABS,ioos:station:wmo:42046:1,2016-04-03T15:00:00Z,27.8903,-94.0367,2.0,322.2939272,16.98781034,-99999.0,'11111222,11111222,99999999' 
TABS,ioos:station:wmo:42046:1,2016-04-03T15:30:00Z,27.8903,-94.0367,2.0,331.7047098,14.95717219,-99999.0,'11111222,11111222,99999999' 
TABS,ioos:station:wmo:42046:1,2016-04-03T16:00:00Z,27.8903,-94.0367,2.0,321.1285818,16.89030787,-99999.0,'11111222,11111222,99999999' 
TABS,ioos:station:wmo:42046:1,2016-04-03T16:30:00Z,27.8903,-94.0367,2.0,319.6621779,19.83633031,-99999.0,'11111222,11111222,99999999' 
TABS,ioos:station:wmo:42046:1,2016-04-03T17:00:00Z,27.8903,-94.0367,2.0,329.3945879,19.48433473,-99999.0,'11111222,11111222,99999999' 
TABS,ioos:station:wmo:42046:1,2016-04-03T17:30:00Z,27.8903,-94.0367,2.0,325.265757,19.32341843,-99999.0,'11111222,11111222,99999999' 
TABS,ioos:station:wmo:42046:1,2016-04-03T18:00:00Z,27.8903,-94.0367,2.0,328.3260065,17.42559612,-99999.0,'11111222,11111222,99999999' 
TABS,ioos:station:wmo:42046:1,2016-04-03T18:30:00Z,27.8903,-94.0367,2.0,320.3662318,14.97141944,-99999.0,'11111222,11111222,99999999' 
TABS,ioos:station:wmo:42046:1,2016-04-03T19:00:00Z,27.8903,-94.0367,2.0,323.6324213,16.2066221,-99999.0,'11111222,11111222,99999999' 
TABS,ioos:station:wmo:42046:1,2016-04-03T19:30:00Z,27.8903,-94.0367,2.0,319.8010468,13.60295924,-99999.0,'11111222,11111222,99999999' 
TABS,ioos:station:wmo:42046:1,2016-04-03T20:00:00Z,27.8903,-94.0367,2.0,318.6770307,13.34228241,-99999.0,'11111222,11111222,99999999' 
TABS,ioos:station:wmo:42046:1,2016-04-03T20:30:00Z,27.8903,-94.0367,2.0,319.8127671,11.71563485,-99999.0,'11111222,11111222,99999999' 
TABS,ioos:station:wmo:42046:1,2016-04-03T21:00:00Z,27.8903,-94.0367,2.0,307.6014866,13.94713591,-99999.0,'11111222,11111222,99999999' 
TABS,ioos:station:wmo:42046:1,2016-04-03T21:30:00Z,27.8903,-94.0367,2.0,300.6482226,13.06496077,-99999.0,'11111222,11111222,99999999' 
TABS,ioos:station:wmo:42046:1,2016-04-03T22:00:00Z,27.8903,-94.0367,2.0,303.893345,14.0950204,-99999.0,'11111222,11111222,99999999' 
TABS,ioos:station:wmo:42046:1,2016-04-03T22:30:00Z,27.8903,-94.0367,2.0,304.3826211,12.85611528,-99999.0,'11111222,11111222,99999999' 
TABS,ioos:station:wmo:42046:1,2016-04-03T23:00:00Z,27.8903,-94.0367,2.0,296.4382984,8.06328097,-99999.0,'11133222,11111222,99999999' 
TABS,ioos:station:wmo:42046:1,2016-04-03T23:30:00Z,27.8903,-94.0367,2.0,308.9603866,13.70912105,-99999.0,'11111222,11111222,99999999' 
TABS,ioos:station:wmo:42046:1,2016-04-04T00:00:00Z,27.8903,-94.0367,2.0,318.4867075,13.48827639,-99999.0,'11111222,11111222,99999999' 
TABS,ioos:station:wmo:42046:1,2016-04-04T00:30:00Z,27.8903,-94.0367,2.0,325.7933936,15.06627028,-99999.0,'11111222,11111222,99999999' 
TABS,ioos:station:wmo:42046:1,2016-04-04T01:00:00Z,27.8903,-94.0367,2.0,338.1513093,15.66526412,-99999.0,'11111222,11111222,99999999' 
TABS,ioos:station:wmo:42046:1,2016-04-04T01:30:00Z,27.8903,-94.0367,2.0,333.6987029,10.69746232,-99999.0,'11111222,11111222,99999999' 
TABS,ioos:station:wmo:42046:1,2016-04-04T02:00:00Z,27.8903,-94.0367,2.0,347.3701843,11.66219962,-99999.0,'11111222,11111222,99999999' 
TABS,ioos:station:wmo:42046:1,2016-04-04T02:30:00Z,27.8903,-94.0367,2.0,348.0955008,12.84629908,-99999.0,'11111222,11111222,99999999' 
TABS,ioos:station:wmo:42046:1,2016-04-04T03:00:00Z,27.8903,-94.0367,2.0,3.006915672,9.913647159,-99999.0,'11133222,11111222,99999999' 
TABS,ioos:station:wmo:42046:1,2016-04-04T03:30:00Z,27.8903,-94.0367,2.0,359.2670338,5.470447879,-99999.0,'11133222,11144222,99999999' 
TABS,ioos:station:wmo:42046:1,2016-04-04T04:00:00Z,27.8903,-94.0367,2.0,356.151575,5.512431405,-99999.0,'11133222,11111222,99999999' 
TABS,ioos:station:wmo:42046:1,2016-04-04T04:30:00Z,27.8903,-94.0367,2.0,359.212691,2.910274901,-99999.0,'11133222,11144222,99999999' 
TABS,ioos:station:wmo:42046:1,2016-04-04T05:00:00Z,27.8903,-94.0367,2.0,339.6273146,4.394917519,-99999.0,'11133222,11111222,99999999' 
TABS,ioos:station:wmo:42046:1,2016-04-04T05:30:00Z,27.8903,-94.0367,2.0,34.45206448,2.085857138,-99999.0,'11133222,11111222,99999999' 
TABS,ioos:station:wmo:42046:1,2016-04-04T06:00:00Z,27.8903,-94.0367,2.0,42.03407128,2.733093485,-99999.0,'11133222,11111222,99999999' 
TABS,ioos:station:wmo:42046:1,2016-04-04T06:30:00Z,27.8903,-94.0367,2.0,313.1527097,1.973854098,-99999.0,'11133222,11111222,99999999' 
TABS,ioos:station:wmo:42046:1,2016-04-04T07:00:00Z,27.8903,-94.0367,2.0,303.225142,2.390836674,-99999.0,'11133222,11111222,99999999' 
TABS,ioos:station:wmo:42046:1,2016-04-04T07:30:00Z,27.8903,-94.0367,2.0,272.3258699,1.971623696,-99999.0,'11133222,11111222,99999999' 
TABS,ioos:station:wmo:42046:1,2016-04-04T08:00:00Z,27.8903,-94.0367,2.0,281.3818571,1.570891467,-99999.0,'11133222,11111222,99999999' 
TABS,ioos:station:wmo:42046:1,2016-04-04T08:30:00Z,27.8903,-94.0367,2.0,249.1787349,3.038420642,-99999.0,'11133222,11111222,99999999' 
TABS,ioos:station:wmo:42046:1,2016-04-04T09:00:00Z,27.8903,-94.0367,2.0,261.6927942,3.668487427,-99999.0,'11133222,11111222,99999999' 
TABS,ioos:station:wmo:42046:1,2016-04-04T09:30:00Z,27.8903,-94.0367,2.0,254.8313264,4.051135643,-99999.0,'11133222,11111222,99999999' 
TABS,ioos:station:wmo:42046:1,2016-04-04T10:00:00Z,27.8903,-94.0367,2.0,244.0293332,6.462584622,-99999.0,'11133222,11111222,99999999' 
TABS,ioos:station:wmo:42046:1,2016-04-04T10:30:00Z,27.8903,-94.0367,2.0,235.2696341,5.195623158,-99999.0,'11133222,11111222,99999999' 
TABS,ioos:station:wmo:42046:1,2016-04-04T11:00:00Z,27.8903,-94.0367,2.0,258.6289785,3.702674709,-99999.0,'11133222,11111222,99999999' 
TABS,ioos:station:wmo:42046:1,2016-04-04T11:30:00Z,27.8903,-94.0367,2.0,254.4141413,3.498642594,-99999.0,'11133222,11111222,99999999' 
TABS,ioos:station:wmo:42046:1,2016-04-04T12:00:00Z,27.8903,-94.0367,2.0,266.6128446,8.29448612,-99999.0,'11133222,11111222,99999999' 
TABS,ioos:station:wmo:42046:1,2016-04-04T12:30:00Z,27.8903,-94.0367,2.0,278.4502188,7.34978231,-99999.0,'11133222,11111222,99999999' 
TABS,ioos:station:wmo:42046:1,2016-04-04T13:00:00Z,27.8903,-94.0367,2.0,279.1695612,8.032639666,-99999.0,'11133222,11111222,99999999' 
TABS,ioos:station:wmo:42046:1,2016-04-04T13:30:00Z,27.8903,-94.0367,2.0,269.9363389,9.060005519,-99999.0,'11133222,11111222,99999999' 
TABS,ioos:station:wmo:42046:1,2016-04-04T14:00:00Z,27.8903,-94.0367,2.0,284.2814833,5.675385449,-99999.0,'11133222,11111222,99999999' 
TABS,ioos:station:wmo:42046:1,2016-04-04T14:30:00Z,27.8903,-94.0367,2.0,293.3257173,7.122078348,-99999.0,'11133222,11111222,99999999' 
TABS,ioos:station:wmo:42046:1,2016-04-04T15:00:00Z,27.8903,-94.0367,2.0,282.678674,6.652195126,-99999.0,'11133222,11111222,99999999' 
TABS,ioos:station:wmo:42046:1,2016-04-04T15:30:00Z,27.8903,-94.0367,2.0,286.0310091,7.387259302,-99999.0,'11133222,11111222,99999999' 
TABS,ioos:station:wmo:42046:1,2016-04-04T16:00:00Z,27.8903,-94.0367,2.0,288.0648858,8.803965016,-99999.0,'11133222,11111222,99999999' 
TABS,ioos:station:wmo:42046:1,2016-04-04T16:30:00Z,27.8903,-94.0367,2.0,318.586652,7.573803536,-99999.0,'11133222,11111222,99999999' 
TABS,ioos:station:wmo:42046:1,2016-04-04T17:00:00Z,27.8903,-94.0367,2.0,300.1955392,10.10046039,-99999.0,'11111222,11111222,99999999' 
TABS,ioos:station:wmo:42046:1,2016-04-04T17:30:00Z,27.8903,-94.0367,2.0,294.1293911,8.733029257,-99999.0,'11133222,11111222,99999999' 
TABS,ioos:station:wmo:42046:1,2016-04-04T18:00:00Z,27.8903,-94.0367,2.0,307.0817412,9.752066448,-99999.0,'11133222,11111222,99999999' 
TABS,ioos:station:wmo:42046:1,2016-04-04T18:30:00Z,27.8903,-94.0367,2.0,304.6101791,10.19392957,-99999.0,'11111222,11111222,99999999' 
TABS,ioos:station:wmo:42046:1,2016-04-04T19:00:00Z,27.8903,-94.0367,2.0,322.8366433,8.972117922,-99999.0,'11133222,11111222,99999999' 
TABS,ioos:station:wmo:42046:1,2016-04-04T19:30:00Z,27.8903,-94.0367,2.0,333.4694891,7.477412654,-99999.0,'11133222,11111222,99999999' 
TABS,ioos:station:wmo:42046:1,2016-04-04T20:00:00Z,27.8903,-94.0367,2.0,346.4747254,5.98601704,-99999.0,'11133222,11111222,99999999' 
TABS,ioos:station:wmo:42046:1,2016-04-04T20:30:00Z,27.8903,-94.0367,2.0,3.576536471,10.25998051,-99999.0,'11111222,11111222,99999999' 
TABS,ioos:station:wmo:42046:1,2016-04-04T21:00:00Z,27.8903,-94.0367,2.0,17.35419451,14.08096588,-99999.0,'11111222,11111222,99999999' 
TABS,ioos:station:wmo:42046:1,2016-04-04T21:30:00Z,27.8903,-94.0367,2.0,16.66809086,21.02333228,-99999.0,'11111222,11111222,99999999' 
TABS,ioos:station:wmo:42046:1,2016-04-04T22:00:00Z,27.8903,-94.0367,2.0,24.32572881,26.43709893,-99999.0,'11111222,11111222,99999999' 
TABS,ioos:station:wmo:42046:1,2016-04-04T22:30:00Z,27.8903,-94.0367,2.0,31.19691876,24.03572549,-99999.0,'11111222,11111222,99999999' 
TABS,ioos:station:wmo:42046:1,2016-04-04T23:00:00Z,27.8903,-94.0367,2.0,42.7916193,26.42299377,-99999.0,'11111222,11111222,99999999' 
TABS,ioos:station:wmo:42046:1,2016-04-04T23:30:00Z,27.8903,-94.0367,2.0,46.15945411,30.4047447,-99999.0,'11111222,11111222,99999999' 
TABS,ioos:station:wmo:42046:1,2016-04-05T00:00:00Z,27.8903,-94.0367,2.0,38.7989389,30.89750799,-99999.0,'11111222,11111222,99999999' 
TABS,ioos:station:wmo:42046:1,2016-04-05T00:30:00Z,27.8903,-94.0367,2.0,33.20584613,30.51237454,-99999.0,'11111222,11111222,99999999' 
TABS,ioos:station:wmo:42046:1,2016-04-05T01:00:00Z,27.8903,-94.0367,2.0,44.52438688,27.25283471,-99999.0,'11111222,11111222,99999999' 
TABS,ioos:station:wmo:42046:1,2016-04-05T01:30:00Z,27.8903,-94.0367,2.0,46.69030595,34.52183077,-99999.0,'11111222,11111222,99999999' 
TABS,ioos:station:wmo:42046:1,2016-04-05T02:00:00Z,27.8903,-94.0367,2.0,52.62937103,34.77932863,-99999.0,'11111222,11111222,99999999' 
TABS,ioos:station:wmo:42046:1,2016-04-05T02:30:00Z,27.8903,-94.0367,2.0,61.71880094,29.86490415,-99999.0,'11111222,11111222,99999999' 
TABS,ioos:station:wmo:42046:1,2016-04-05T03:00:00Z,27.8903,-94.0367,2.0,69.97520869,28.15194665,-99999.0,'11111222,11111222,99999999' 
TABS,ioos:station:wmo:42046:1,2016-04-05T03:30:00Z,27.8903,-94.0367,2.0,75.84953337,18.24356599,-99999.0,'11111222,11111222,99999999' 